OPS 4682 DEB, 38419

Orbit data source: Space-Track

OPS 4682 DEB, 38419 is space debris in LEO originally from a launch on Sat, 03 Apr 1965 UTC launched from the Air Force Western Test Range (AFWTR). Debris objects in space refer to the collection of defunct objects orbiting the Earth. Examples of debris include non-operational satellites, rocket bodies, and fragments generated from explosions, collisions, or faulty payload assembly.

Loading next visibility...
Identifier
38419, 1965-027DY
Orbit
LEO
Country
Flag of USUS
Related business
Manufacturer
Unknown
Mission
Spacecraft
Bus & Motor
Unknown
Mass
Unknown
Launch date (UTC)
1965-04-03 (61 years ago)
Launch vehicle
Unknown
Launch site
Air Force Western Test Range (AFWTR)
Object type
Payload
Rocket body
Debris
Shape & HBR
Unknown shape, 0.1 m
Radar Cross Section
Small (<0.1 m²)

Expand to show TLE details & history
Last TLE update: 3 days ago

TLE from 3 days ago
0 OPS 4682 DEB
1 38419U 65027DY  26205.68631935  .00000178  00000-0  60596-3 0  9996
2 38419  90.2406   6.6273 0032545  80.7760 279.7038 12.95156751305926
Epoch: 2026-07-24T16:28Z
TLE epoch observation values (Epoch: 2026-07-24T16:28:17.991Z)
Latitude
-0.00006°
Longitude
177.14295°
Altitude
1,279.875 km
Speed
7.218 km/s
True Right ascension
00h 26m 30s
True Declination
0° 00' 00"
Sunlit
Object was in daylight at epoch
Visualization orbit readout
Latitude
Unknown
Longitude
Unknown
Altitude
Unknown
Speed
Unknown
Apparent Right ascension
Unknown
Apparent Declination
Unknown
Sunlit
N/A
Visualization observer readout
Local Sidereal Time
00:03:08
Azimuth
Unknown
Elevation
Unknown
Doppler factor
Unknown
Orbital elements
Apogee altitude
1,303.174 km
Perigee altitude
1,253.338 km
Semi-major axis
7,656.393 km
Eccentricity
0.00325
Inclination
90.2406°
RAAN
6.6273°
Arg. of periapsis
80.776°
True anomaly
279.33595°
Mean anomaly
279.7038°
Eccentric anomaly
279.5199°
Mean motion
3.23972 °/min
Orbital period
111.12 mins
BSTAR
0.00060596
Loading maneuver chart data...
Computing Atmospheric mass density...
Loading historical data...
Loading historical data...
Loading historical data...
Loading historical data...
Loading historical data...
Loading historical data...
Loading historical data...

Documentation

Showing up to 5 results
|